This demonstration page uses our WeatherBlox Daily Observations layout. Learn more.

Left ArrowRight Arrow

44.8408, -93.29828

Hourly Observations for November 7, 2020

Temp ( °F °C ) Dew Point ( °F °C ) Humidity (%) Winds ( mph kmh ) Pressure ( in mb ) Visibility ( mi km ) Precip ( " mm )
12:53 am 00:53 Mostly Clear 62 16.7 53 11.7 73 73 SSW 14 22 29.84 1011 10 16 0.00 0.00
1:53 am 01:53 Mostly Clear 61 16.1 54 12.2 78 78 SSW 13 20 29.83 1010 10 16 0.00 0.00
2:53 am 02:53 Mostly Clear 61 16.1 55 12.8 81 81 SSW 10 17 29.84 1010 10 16 0.00 0.00
3:53 am 03:53 Mostly Clear 61 16.1 55 12.8 81 81 SSW 12 19 29.82 1010 10 16 0.00 0.00
4:53 am 04:53 Mostly Clear 61 16.1 55 12.8 81 81 SSW 13 20 29.83 1010 10 16 0.00 0.00
5:53 am 05:53 Clear 61 16.1 54 12.2 78 78 SW 9 15 29.83 1010 10 16 0.00 0.00
6:53 am 06:53 Mostly Cloudy 60 15.6 54 12.2 80 80 SSW 13 20 29.84 1011 10 16 0.00 0.00
7:53 am 07:53 Mostly Cloudy 60 15.6 54 12.2 80 80 SSW 10 17 29.85 1011 10 16 0.00 0.00
8:53 am 08:53 Mostly Cloudy 61 16.1 54 12.2 78 78 SSW 13 20 29.85 1011 10 16 0.00 0.00
9:53 am 09:53 Mostly Cloudy 63 17.2 54 12.2 73 73 SSW 17 28 29.84 1010 10 16 0.00 0.00
10:53 am 10:53 Cloudy 65 18.3 54 12.2 68 68 SSW 14 22 29.83 1010 10 16 0.00 0.00
11:53 am 11:53 Cloudy 67 19.4 53 11.7 61 61 SSW 13 20 29.83 1010 10 16 0.00 0.00
12:53 pm 12:53 Cloudy 70 21.1 53 11.7 55 55 S 12 19 29.80 1009 10 16 0.00 0.00
1:53 pm 13:53 Cloudy 71 21.7 53 11.7 53 53 S 12 19 29.80 1009 10 16 0.00 0.00
2:53 pm 14:53 Cloudy 73 22.8 53 11.7 50 50 SSW 13 20 29.78 1008 10 16 0.00 0.00
3:53 pm 15:53 Mostly Cloudy 72 22.2 53 11.7 52 52 S 16 26 29.78 1009 10 16 0.00 0.00
4:53 pm 16:53 Partly Cloudy 69 20.6 53 11.7 57 57 S 16 26 29.79 1009 10 16 0.00 0.00
5:53 pm 17:53 Partly Cloudy 68 20 53 11.7 59 59 S 15 24 29.80 1009 10 16 0.00 0.00
6:53 pm 18:53 Mostly Clear 66 18.9 53 11.7 63 63 S 15 24 29.82 1010 10 16 0.00 0.00
7:53 pm 19:53 Mostly Clear 65 18.3 52 11.1 63 63 S 16 26 29.82 1010 10 16 0.00 0.00
8:53 pm 20:53 Clear 65 18.3 52 11.1 63 63 S 22 35 29.84 1011 10 16 0.00 0.00
9:53 pm 21:53 Clear 64 17.8 51 10.6 63 63 S 17 28 29.85 1011 10 16 0.00 0.00
10:53 pm 22:53 Clear 63 17.2 50 10 63 63 S 16 26 29.85 1011 10 16 0.00 0.00
11:53 pm 23:53 Clear 62 16.7 49 9.4 62 62 S 15 24 29.87 1011 10 16 0.00 0.00

Powered by AerisWeather